GFSNGP_prec_precacc_150.txt.gz
Total_Precipitation_Accumulation
0.39 0.29 0.34 0.42 0.32 0.26 0.49 0.61 0.94 0.40 0.41 0.63 1.14 1.24 0.80 0.29 0.17 0.18 0.16 0.13 0.21 0.23 0.23 0.23 0.31 0.37 0.45 0.58 1.06 1.21 1.46 1.91 1.81 1.56 1.43 1.52 1.54 1.41 0.88 0.76 0.66 0.52 0.48 0.45
0.41 0.40 0.33 0.24 0.11 0.25 0.36 0.38 0.53 0.41 0.51 0.67 0.84 0.97 0.74 0.60 0.36 0.27 0.25 0.22 0.24 0.28 0.29 0.29 0.28 0.24 0.29 0.38 0.45 0.62 0.72 1.17 1.60 1.97 1.29 1.34 1.61 1.81 1.36 0.94 1.02 0.78 0.85 0.68
0.52 0.30 0.57 0.46 0.08 0.12 0.20 0.36 0.58 0.72 0.51 0.40 0.55 0.69 0.47 0.46 0.43 0.38 0.41 0.23 0.22 0.22 0.20 0.25 0.27 0.27 0.33 0.40 0.38 0.49 0.64 0.99 1.13 1.39 1.81 1.40 1.57 1.68 1.93 1.59 1.26 1.24 1.00 0.98
0.78 0.46 1.00 0.25 0.17 0.27 0.28 0.45 0.54 0.59 0.46 0.40 0.37 0.74 0.76 0.40 0.50 0.54 0.65 0.77 0.45 0.38 0.37 0.39 0.45 0.49 0.54 0.59 0.66 0.73 0.79 0.90 0.99 0.89 1.38 1.72 1.36 1.29 1.36 1.52 1.62 1.52 1.21 1.00
1.05 0.82 0.38 0.16 0.28 0.53 0.62 0.62 0.44 0.39 0.33 0.29 0.29 0.38 0.77 0.67 0.53 0.62 0.75 0.98 1.25 0.84 0.72 0.80 0.76 0.84 0.97 0.94 0.92 0.81 0.96 1.06 1.19 1.23 1.20 1.25 1.49 1.35 1.45 1.35 1.33 1.45 1.29 0.95
0.96 1.07 0.70 0.73 0.26 0.21 0.61 0.71 0.31 0.30 0.31 0.36 0.35 0.47 0.53 0.61 0.72 0.88 0.83 0.71 0.74 1.10 1.13 1.08 1.23 0.94 0.84 0.93 0.95 1.00 0.93 0.95 1.01 1.05 1.19 1.40 1.71 1.85 1.75 1.60 1.38 1.22 1.20 1.18
0.81 0.96 0.72 0.47 0.26 0.35 0.73 0.73 0.24 0.33 0.36 0.43 0.67 0.61 0.82 0.86 1.00 1.13 0.64 0.55 0.58 0.55 0.77 1.04 1.11 1.23 1.10 0.94 1.02 1.11 1.19 0.92 0.84 0.88 1.07 1.20 1.24 1.41 1.67 1.85 1.80 1.51 1.39 1.31
1.15 1.57 0.98 0.12 0.29 0.61 0.79 0.43 0.29 0.37 0.38 0.40 0.48 0.43 0.63 0.73 0.93 0.97 0.75 0.45 0.38 0.43 0.43 0.36 0.30 0.40 0.75 1.04 1.22 1.24 1.14 0.90 0.89 0.89 0.94 1.03 1.06 1.09 1.09 1.22 1.53 1.76 1.63 1.62
0.99 0.96 0.56 0.30 0.42 0.48 0.40 0.41 0.44 0.59 0.62 0.53 0.54 0.79 0.85 0.87 0.97 1.11 0.76 0.29 0.16 0.15 0.10 0.08 0.09 0.11 0.20 0.40 0.68 0.91 0.98 0.96 0.85 0.73 0.65 0.60 0.65 0.81 0.94 0.97 0.94 1.00 1.14 1.33
0.93 0.67 0.39 0.53 0.44 0.25 0.25 0.28 0.30 0.31 0.74 1.05 1.20 1.18 1.24 1.25 1.01 0.84 0.60 0.20 0.07 0.03 0.02 0.08 0.11 0.13 0.15 0.25 0.31 0.33 0.33 0.36 0.33 0.34 0.38 0.35 0.40 0.46 0.48 0.58 0.70 0.85 0.95 1.02
1.02 0.97 0.70 0.66 0.94 0.62 0.44 0.32 0.32 0.33 0.25 0.39 0.53 0.60 0.43 0.44 0.53 0.54 0.57 0.39 0.16 0.12 0.15 0.18 0.13 0.14 0.21 0.26 0.31 0.38 0.36 0.28 0.23 0.21 0.25 0.28 0.34 0.45 0.42 0.59 0.62 0.67 0.84 0.89
0.91 1.14 1.28 1.36 0.88 0.71 0.80 0.61 0.44 0.22 0.17 0.22 0.31 0.35 0.36 0.35 0.32 0.37 0.47 0.45 0.36 0.32 0.27 0.23 0.21 0.32 0.37 0.33 0.26 0.24 0.23 0.24 0.27 0.19 0.20 0.22 0.23 0.37 0.57 0.63 0.59 0.65 0.75 0.78
0.99 1.04 1.08 0.97 0.61 0.38 0.29 0.34 0.34 0.22 0.18 0.15 0.10 0.08 0.14 0.26 0.31 0.36 0.38 0.45 0.55 0.54 0.49 0.47 0.47 0.52 0.54 0.50 0.39 0.36 0.33 0.30 0.30 0.31 0.34 0.36 0.37 0.36 0.52 0.72 0.76 0.93 1.01 1.03
0.69 0.61 0.41 0.33 0.27 0.15 0.06 0.04 0.02 0.02 0.04 0.03 0.02 0.02 0.09 0.25 0.31 0.25 0.27 0.28 0.27 0.35 0.51 0.64 0.74 0.90 1.05 1.01 0.96 0.99 1.01 0.99 0.91 0.88 0.94 1.07 1.19 1.30 1.36 1.39 1.40 1.48 1.45 1.26
0.38 0.29 0.19 0.12 0.05 0.03 0.01 0.01 0.01 0.01 0.01 0.03 0.11 0.27 0.30 0.21 0.16 0.16 0.16 0.16 0.21 0.26 0.39 0.54 0.67 0.98 1.16 1.28 1.41 1.62 1.72 1.83 1.81 1.73 1.63 1.44 1.28 1.17 1.13 1.13 1.13 1.18 1.15 1.06
0.21 0.09 0.05 0.06 0.05 0.04 0.02 0.01 0.01 0.02 0.06 0.18 0.26 0.17 0.12 0.11 0.14 0.17 0.18 0.17 0.16 0.25 0.31 0.37 0.53 0.86 0.92 0.99 1.09 1.16 1.13 1.04 0.91 0.87 0.84 0.78 0.75 0.69 0.66 0.64 0.60 0.58 0.55 0.54
0.18 0.17 0.11 0.09 0.05 0.03 0.03 0.04 0.05 0.09 0.13 0.14 0.14 0.12 0.09 0.10 0.13 0.23 0.37 0.47 0.48 0.63 0.75 0.79 1.06 1.11 1.01 0.89 0.74 0.73 0.70 0.68 0.62 0.57 0.54 0.51 0.46 0.41 0.36 0.33 0.32 0.29 0.30 0.22
0.25 0.26 0.23 0.19 0.14 0.09 0.13 0.16 0.15 0.15 0.19 0.20 0.21 0.21 0.25 0.30 0.42 0.58 0.75 0.81 0.86 0.99 1.12 1.13 0.98 0.86 0.79 0.73 0.59 0.50 0.42 0.35 0.30 0.27 0.24 0.23 0.20 0.19 0.20 0.19 0.16 0.15 0.14 0.13
0.26 0.24 0.26 0.25 0.25 0.21 0.21 0.20 0.21 0.25 0.30 0.32 0.35 0.52 0.62 0.78 0.86 1.03 1.12 1.01 0.97 0.87 1.07 0.86 0.65 0.46 0.40 0.34 0.25 0.20 0.17 0.15 0.13 0.12 0.12 0.12 0.13 0.14 0.16 0.19 0.20 0.21 0.20 0.18
0.33 0.33 0.29 0.29 0.27 0.26 0.29 0.38 0.40 0.54 0.77 0.77 0.85 0.97 1.04 1.21 1.13 1.02 0.84 0.76 0.74 0.70 0.62 0.50 0.38 0.28 0.22 0.19 0.15 0.11 0.11 0.10 0.10 0.10 0.11 0.12 0.14 0.14 0.14 0.14 0.17 0.24 0.26 0.27
0.50 0.48 0.53 0.58 0.74 0.90 0.96 1.05 0.86 0.96 1.20 1.08 0.88 0.94 0.88 0.93 0.80 0.66 0.50 0.46 0.58 0.42 0.35 0.33 0.28 0.22 0.16 0.13 0.11 0.10 0.10 0.09 0.08 0.10 0.14 0.15 0.19 0.20 0.22 0.24 0.26 0.26 0.27 0.28
0.97 0.90 0.99 0.96 0.82 1.06 1.19 1.08 0.86 0.85 0.85 0.84 0.78 0.70 0.56 0.59 0.52 0.43 0.36 0.31 0.37 0.22 0.17 0.16 0.15 0.15 0.12 0.09 0.09 0.10 0.10 0.11 0.14 0.16 0.20 0.22 0.27 0.32 0.34 0.34 0.36 0.36 0.40 0.41
0.97 0.86 0.85 0.80 0.70 0.78 0.81 0.75 0.72 0.55 0.53 0.52 0.47 0.43 0.34 0.32 0.25 0.17 0.24 0.22 0.13 0.08 0.06 0.08 0.08 0.08 0.08 0.12 0.15 0.15 0.16 0.18 0.19 0.22 0.29 0.35 0.37 0.37 0.32 0.28 0.25 0.25 0.26 0.24
0.64 0.61 0.62 0.60 0.42 0.30 0.34 0.44 0.36 0.33 0.30 0.29 0.26 0.22 0.16 0.14 0.18 0.10 0.06 0.08 0.05 0.03 0.03 0.07 0.05 0.06 0.08 0.14 0.16 0.16 0.19 0.25 0.29 0.31 0.27 0.22 0.23 0.22 0.21 0.18 0.14 0.15 0.16 0.15
0.43 0.41 0.39 0.31 0.23 0.27 0.25 0.23 0.19 0.23 0.19 0.20 0.16 0.13 0.08 0.05 0.09 0.10 0.06 0.07 0.05 0.05 0.12 0.10 0.07 0.08 0.13 0.16 0.18 0.19 0.23 0.22 0.23 0.22 0.21 0.19 0.18 0.17 0.16 0.15 0.15 0.14 0.13 0.13
0.25 0.24 0.28 0.26 0.28 0.25 0.21 0.16 0.19 0.22 0.17 0.18 0.20 0.15 0.13 0.08 0.06 0.06 0.08 0.07 0.07 0.07 0.15 0.21 0.15 0.15 0.18 0.21 0.22 0.23 0.22 0.19 0.18 0.16 0.15 0.13 0.13 0.12 0.12 0.10 0.09 0.08 0.09 0.09
0.28 0.26 0.22 0.23 0.24 0.19 0.18 0.17 0.17 0.17 0.16 0.15 0.20 0.22 0.16 0.12 0.10 0.06 0.08 0.11 0.13 0.15 0.18 0.19 0.20 0.20 0.20 0.18 0.17 0.15 0.14 0.13 0.12 0.10 0.09 0.10 0.09 0.10 0.08 0.07 0.06 0.06 0.07 0.08

GFSNGP_prec_precacc_153.txt.gz
Total_Precipitation_Accumulation
0.39 0.29 0.34 0.42 0.32 0.26 0.49 0.61 0.95 0.40 0.41 0.63 1.14 1.24 0.80 0.29 0.17 0.18 0.16 0.13 0.21 0.23 0.23 0.23 0.31 0.37 0.45 0.58 1.06 1.21 1.46 1.92 1.82 1.57 1.43 1.52 1.54 1.41 0.88 0.76 0.66 0.52 0.48 0.45
0.41 0.40 0.33 0.25 0.11 0.25 0.36 0.38 0.53 0.41 0.51 0.67 0.84 0.97 0.74 0.60 0.36 0.27 0.25 0.22 0.24 0.28 0.29 0.29 0.28 0.24 0.29 0.38 0.45 0.62 0.72 1.17 1.61 1.98 1.30 1.35 1.61 1.82 1.37 0.94 1.02 0.79 0.85 0.68
0.52 0.30 0.58 0.47 0.08 0.12 0.20 0.36 0.59 0.73 0.51 0.40 0.55 0.69 0.47 0.46 0.43 0.38 0.41 0.23 0.22 0.23 0.21 0.25 0.27 0.27 0.33 0.40 0.38 0.49 0.64 1.00 1.14 1.42 1.85 1.45 1.61 1.72 1.95 1.60 1.26 1.24 1.00 0.98
0.78 0.46 1.01 0.25 0.17 0.27 0.28 0.45 0.54 0.59 0.46 0.40 0.37 0.74 0.76 0.40 0.50 0.54 0.65 0.77 0.45 0.39 0.38 0.42 0.48 0.52 0.55 0.61 0.67 0.75 0.83 0.98 1.14 1.04 1.52 1.85 1.48 1.38 1.41 1.54 1.63 1.52 1.21 1.00
1.05 0.82 0.38 0.16 0.28 0.53 0.62 0.62 0.44 0.39 0.33 0.29 0.29 0.38 0.77 0.67 0.53 0.62 0.75 0.98 1.25 0.84 0.74 0.88 0.90 1.01 1.14 1.16 1.14 1.06 1.24 1.37 1.51 1.53 1.49 1.50 1.69 1.48 1.53 1.39 1.35 1.45 1.29 0.95
0.96 1.08 0.70 0.73 0.26 0.21 0.62 0.72 0.31 0.30 0.31 0.36 0.35 0.48 0.55 0.61 0.72 0.88 0.83 0.71 0.74 1.10 1.15 1.12 1.33 1.13 1.13 1.26 1.34 1.44 1.37 1.36 1.37 1.36 1.42 1.57 1.82 1.92 1.79 1.62 1.39 1.22 1.20 1.18
0.83 1.00 0.72 0.47 0.26 0.36 0.75 0.73 0.24 0.33 0.36 0.43 0.67 0.61 0.82 0.86 1.00 1.13 0.64 0.55 0.58 0.55 0.77 1.04 1.13 1.33 1.31 1.25 1.35 1.49 1.65 1.37 1.15 1.09 1.22 1.31 1.30 1.43 1.67 1.86 1.81 1.52 1.39 1.32
1.18 1.62 1.00 0.12 0.29 0.63 0.80 0.44 0.29 0.37 0.38 0.40 0.48 0.43 0.63 0.73 0.93 0.97 0.75 0.45 0.38 0.43 0.43 0.36 0.30 0.42 0.84 1.26 1.56 1.62 1.61 1.32 1.11 1.04 1.04 1.11 1.10 1.11 1.09 1.23 1.53 1.76 1.64 1.63
0.99 0.96 0.56 0.30 0.43 0.48 0.40 0.41 0.44 0.60 0.63 0.54 0.54 0.79 0.85 0.87 0.97 1.11 0.76 0.29 0.16 0.15 0.10 0.08 0.09 0.11 0.22 0.47 0.83 1.20 1.28 1.24 1.05 0.89 0.76 0.64 0.67 0.81 0.94 0.97 0.94 1.01 1.14 1.34
0.95 0.67 0.39 0.53 0.44 0.25 0.25 0.28 0.30 0.31 0.74 1.05 1.20 1.18 1.24 1.25 1.01 0.84 0.60 0.20 0.07 0.03 0.02 0.08 0.11 0.13 0.16 0.28 0.38 0.45 0.48 0.56 0.51 0.48 0.49 0.40 0.41 0.46 0.48 0.58 0.70 0.85 0.95 1.02
1.02 0.97 0.70 0.66 0.94 0.62 0.44 0.32 0.32 0.33 0.25 0.39 0.53 0.60 0.43 0.44 0.53 0.54 0.57 0.39 0.16 0.12 0.15 0.18 0.13 0.14 0.22 0.28 0.36 0.47 0.48 0.42 0.39 0.34 0.31 0.30 0.34 0.45 0.42 0.59 0.62 0.67 0.84 0.89
0.91 1.14 1.28 1.36 0.89 0.72 0.81 0.61 0.44 0.22 0.17 0.22 0.31 0.35 0.36 0.35 0.32 0.37 0.47 0.45 0.36 0.32 0.27 0.23 0.21 0.32 0.38 0.34 0.28 0.31 0.33 0.35 0.38 0.27 0.21 0.22 0.23 0.37 0.57 0.63 0.59 0.65 0.75 0.78
0.99 1.04 1.08 0.97 0.61 0.38 0.29 0.34 0.34 0.22 0.18 0.15 0.10 0.08 0.14 0.26 0.31 0.36 0.38 0.45 0.55 0.54 0.49 0.47 0.47 0.53 0.55 0.52 0.41 0.38 0.34 0.33 0.36 0.34 0.34 0.36 0.37 0.36 0.52 0.72 0.76 0.93 1.01 1.03
0.69 0.61 0.41 0.33 0.27 0.16 0.06 0.04 0.03 0.02 0.04 0.03 0.02 0.02 0.09 0.25 0.31 0.25 0.27 0.28 0.27 0.35 0.51 0.65 0.75 0.91 1.07 1.03 0.99 1.02 1.05 1.04 0.96 0.90 0.94 1.07 1.19 1.30 1.36 1.39 1.40 1.48 1.45 1.26
0.38 0.29 0.20 0.13 0.08 0.04 0.02 0.01 0.01 0.01 0.01 0.03 0.11 0.27 0.30 0.21 0.16 0.16 0.16 0.16 0.21 0.26 0.41 0.56 0.71 1.03 1.20 1.31 1.45 1.66 1.77 1.89 1.86 1.76 1.64 1.44 1.28 1.17 1.13 1.13 1.13 1.18 1.15 1.07
0.21 0.09 0.06 0.07 0.05 0.04 0.02 0.01 0.01 0.02 0.06 0.18 0.26 0.17 0.12 0.12 0.15 0.18 0.19 0.21 0.21 0.31 0.37 0.42 0.58 0.90 0.97 1.05 1.14 1.20 1.17 1.08 0.94 0.89 0.85 0.80 0.76 0.70 0.67 0.64 0.60 0.59 0.55 0.55
0.18 0.17 0.12 0.10 0.05 0.03 0.03 0.04 0.05 0.09 0.13 0.14 0.14 0.12 0.09 0.10 0.13 0.23 0.37 0.47 0.48 0.63 0.76 0.80 1.09 1.14 1.06 0.94 0.79 0.76 0.73 0.71 0.64 0.58 0.56 0.52 0.47 0.41 0.36 0.34 0.32 0.29 0.30 0.22
0.25 0.26 0.23 0.19 0.14 0.09 0.13 0.16 0.15 0.15 0.19 0.20 0.21 0.21 0.25 0.30 0.42 0.58 0.76 0.81 0.86 0.99 1.13 1.14 0.99 0.88 0.82 0.76 0.61 0.52 0.44 0.37 0.32 0.28 0.25 0.23 0.20 0.19 0.20 0.19 0.16 0.15 0.15 0.14
0.26 0.24 0.26 0.25 0.25 0.22 0.21 0.20 0.21 0.25 0.30 0.32 0.35 0.52 0.62 0.78 0.86 1.03 1.12 1.02 0.97 0.88 1.08 0.87 0.66 0.47 0.41 0.36 0.25 0.20 0.18 0.16 0.14 0.14 0.13 0.13 0.14 0.14 0.16 0.19 0.20 0.21 0.21 0.18
0.33 0.33 0.29 0.29 0.27 0.26 0.29 0.38 0.40 0.54 0.77 0.77 0.85 0.97 1.04 1.21 1.13 1.02 0.84 0.77 0.75 0.70 0.62 0.50 0.38 0.28 0.22 0.19 0.15 0.11 0.11 0.11 0.10 0.11 0.12 0.13 0.15 0.14 0.14 0.14 0.18 0.24 0.26 0.27
0.50 0.48 0.53 0.58 0.74 0.90 0.96 1.05 0.86 0.96 1.20 1.08 0.88 0.94 0.88 0.93 0.80 0.66 0.50 0.46 0.58 0.42 0.35 0.34 0.28 0.23 0.16 0.13 0.11 0.10 0.10 0.10 0.09 0.10 0.14 0.16 0.19 0.20 0.23 0.25 0.26 0.27 0.28 0.28
0.97 0.90 0.99 0.96 0.82 1.06 1.19 1.08 0.86 0.85 0.85 0.84 0.78 0.70 0.56 0.59 0.52 0.44 0.36 0.31 0.37 0.23 0.17 0.16 0.16 0.15 0.12 0.09 0.10 0.10 0.10 0.11 0.14 0.17 0.20 0.23 0.28 0.32 0.35 0.35 0.37 0.37 0.41 0.42
0.97 0.86 0.85 0.80 0.70 0.78 0.81 0.75 0.72 0.55 0.53 0.52 0.47 0.43 0.34 0.32 0.25 0.17 0.24 0.22 0.13 0.08 0.06 0.08 0.09 0.08 0.08 0.13 0.15 0.16 0.16 0.19 0.19 0.22 0.29 0.36 0.38 0.37 0.32 0.29 0.26 0.26 0.27 0.25
0.64 0.61 0.63 0.60 0.42 0.30 0.34 0.44 0.36 0.33 0.30 0.29 0.26 0.22 0.16 0.14 0.18 0.10 0.06 0.08 0.05 0.03 0.03 0.07 0.05 0.06 0.09 0.16 0.17 0.17 0.21 0.26 0.30 0.31 0.28 0.22 0.24 0.23 0.21 0.18 0.15 0.15 0.16 0.15
0.43 0.41 0.39 0.31 0.23 0.27 0.25 0.23 0.19 0.23 0.19 0.20 0.16 0.13 0.08 0.05 0.09 0.10 0.06 0.07 0.05 0.06 0.13 0.10 0.07 0.09 0.14 0.17 0.19 0.20 0.24 0.24 0.24 0.23 0.21 0.19 0.18 0.17 0.17 0.15 0.15 0.14 0.13 0.13
0.25 0.24 0.28 0.26 0.28 0.25 0.21 0.16 0.19 0.22 0.17 0.18 0.20 0.16 0.13 0.08 0.06 0.06 0.08 0.07 0.07 0.07 0.16 0.22 0.16 0.16 0.20 0.22 0.23 0.23 0.23 0.20 0.18 0.17 0.15 0.13 0.13 0.13 0.13 0.10 0.09 0.08 0.09 0.09
0.28 0.26 0.22 0.23 0.24 0.19 0.18 0.17 0.17 0.18 0.16 0.15 0.20 0.22 0.16 0.12 0.10 0.07 0.09 0.11 0.13 0.15 0.18 0.20 0.20 0.21 0.20 0.18 0.17 0.15 0.14 0.13 0.12 0.10 0.09 0.10 0.09 0.10 0.08 0.07 0.06 0.06 0.07 0.08

GFSNGP_prec_precacc_159.txt.gz
Total_Precipitation_Accumulation
0.39 0.29 0.34 0.42 0.32 0.26 0.49 0.61 0.96 0.40 0.41 0.63 1.14 1.24 0.80 0.29 0.17 0.18 0.16 0.13 0.21 0.23 0.23 0.23 0.31 0.37 0.45 0.58 1.06 1.21 1.46 1.92 1.82 1.57 1.43 1.52 1.54 1.41 0.88 0.76 0.66 0.53 0.48 0.46
0.42 0.40 0.33 0.25 0.11 0.25 0.36 0.38 0.53 0.41 0.51 0.67 0.84 0.97 0.74 0.60 0.36 0.27 0.25 0.22 0.24 0.28 0.29 0.29 0.28 0.24 0.29 0.38 0.45 0.62 0.72 1.17 1.61 1.98 1.30 1.35 1.61 1.83 1.40 0.96 1.03 0.80 0.88 0.71
0.52 0.30 0.58 0.47 0.08 0.12 0.20 0.36 0.59 0.73 0.51 0.40 0.55 0.69 0.47 0.46 0.43 0.38 0.41 0.23 0.22 0.23 0.21 0.25 0.27 0.27 0.33 0.40 0.38 0.49 0.65 1.01 1.16 1.44 1.86 1.47 1.68 1.85 2.08 1.69 1.34 1.34 1.09 1.06
0.78 0.46 1.01 0.25 0.17 0.27 0.28 0.45 0.54 0.59 0.46 0.40 0.37 0.74 0.76 0.40 0.50 0.54 0.65 0.77 0.45 0.39 0.38 0.42 0.48 0.52 0.56 0.62 0.69 0.77 0.87 1.04 1.25 1.17 1.67 2.02 1.71 1.66 1.66 1.75 1.83 1.72 1.35 1.15
1.05 0.82 0.38 0.16 0.28 0.53 0.62 0.62 0.44 0.39 0.33 0.29 0.29 0.38 0.77 0.67 0.54 0.63 0.75 0.98 1.25 0.84 0.74 0.88 0.91 1.02 1.18 1.24 1.25 1.19 1.40 1.56 1.72 1.79 1.81 1.88 2.12 1.92 1.92 1.73 1.71 1.74 1.48 1.13
0.96 1.08 0.70 0.73 0.26 0.21 0.62 0.72 0.31 0.30 0.31 0.36 0.35 0.48 0.59 0.65 0.79 0.90 0.84 0.71 0.74 1.10 1.15 1.12 1.33 1.13 1.15 1.36 1.50 1.62 1.60 1.68 1.77 1.80 1.92 2.10 2.33 2.37 2.19 1.99 1.71 1.41 1.40 1.32
0.83 1.00 0.73 0.47 0.26 0.36 0.75 0.75 0.25 0.33 0.37 0.44 0.71 0.67 0.92 0.93 1.05 1.14 0.64 0.55 0.58 0.55 0.77 1.04 1.13 1.33 1.32 1.30 1.48 1.63 1.83 1.66 1.55 1.54 1.66 1.73 1.67 1.74 1.98 2.12 1.99 1.68 1.56 1.40
1.20 1.65 1.02 0.12 0.30 0.64 0.83 0.46 0.31 0.38 0.40 0.43 0.50 0.49 0.87 0.93 0.98 0.98 0.75 0.45 0.38 0.43 0.43 0.36 0.30 0.42 0.84 1.28 1.62 1.76 1.78 1.56 1.38 1.31 1.32 1.38 1.35 1.36 1.32 1.41 1.69 1.92 1.75 1.69
1.00 0.97 0.56 0.30 0.43 0.49 0.41 0.42 0.44 0.60 0.64 0.60 0.71 0.88 0.91 0.89 0.98 1.11 0.76 0.29 0.16 0.15 0.10 0.08 0.09 0.11 0.22 0.48 0.86 1.28 1.44 1.38 1.21 1.09 0.96 0.84 0.88 1.04 1.15 1.13 1.08 1.12 1.21 1.37
0.96 0.67 0.39 0.53 0.44 0.25 0.25 0.28 0.30 0.31 0.74 1.07 1.30 1.29 1.27 1.26 1.01 0.84 0.60 0.20 0.07 0.03 0.02 0.08 0.11 0.13 0.16 0.29 0.41 0.49 0.56 0.67 0.66 0.64 0.69 0.62 0.60 0.62 0.64 0.71 0.79 0.91 0.99 1.04
1.03 0.97 0.70 0.66 0.94 0.62 0.44 0.32 0.32 0.33 0.25 0.41 0.56 0.63 0.45 0.45 0.53 0.54 0.57 0.39 0.16 0.12 0.15 0.18 0.13 0.14 0.22 0.29 0.37 0.50 0.54 0.53 0.53 0.52 0.49 0.48 0.52 0.57 0.50 0.65 0.65 0.69 0.85 0.89
0.91 1.14 1.28 1.36 0.89 0.72 0.81 0.61 0.44 0.22 0.18 0.24 0.33 0.43 0.43 0.38 0.33 0.37 0.47 0.45 0.36 0.32 0.27 0.23 0.21 0.32 0.39 0.36 0.29 0.32 0.36 0.43 0.48 0.39 0.35 0.34 0.34 0.47 0.63 0.66 0.60 0.65 0.75 0.78
0.99 1.04 1.08 0.97 0.61 0.38 0.29 0.34 0.34 0.24 0.22 0.22 0.30 0.29 0.27 0.40 0.34 0.36 0.38 0.45 0.55 0.54 0.49 0.47 0.47 0.54 0.59 0.56 0.45 0.40 0.36 0.35 0.41 0.41 0.41 0.42 0.43 0.42 0.58 0.75 0.76 0.93 1.01 1.03
0.69 0.61 0.41 0.33 0.27 0.16 0.07 0.05 0.04 0.04 0.07 0.07 0.12 0.14 0.19 0.27 0.31 0.25 0.27 0.28 0.27 0.35 0.52 0.65 0.76 0.94 1.12 1.11 1.10 1.14 1.17 1.09 1.03 0.98 1.02 1.13 1.25 1.36 1.40 1.41 1.41 1.51 1.47 1.26
0.38 0.29 0.20 0.13 0.08 0.05 0.04 0.12 0.21 0.18 0.18 0.23 0.28 0.36 0.30 0.21 0.16 0.16 0.16 0.16 0.21 0.26 0.41 0.57 0.73 1.09 1.28 1.42 1.57 1.79 1.88 1.99 1.95 1.86 1.72 1.49 1.32 1.22 1.17 1.15 1.13 1.19 1.17 1.09
0.22 0.12 0.08 0.09 0.06 0.05 0.02 0.03 0.25 0.35 0.36 0.39 0.39 0.18 0.12 0.12 0.15 0.18 0.19 0.21 0.22 0.32 0.41 0.48 0.65 1.01 1.12 1.22 1.31 1.37 1.31 1.20 1.04 0.97 0.93 0.87 0.81 0.73 0.69 0.65 0.60 0.59 0.56 0.56
0.21 0.24 0.22 0.29 0.20 0.09 0.04 0.07 0.17 0.12 0.20 0.18 0.14 0.12 0.09 0.10 0.13 0.23 0.37 0.47 0.49 0.63 0.76 0.81 1.10 1.17 1.09 0.97 0.82 0.81 0.79 0.79 0.72 0.64 0.62 0.56 0.50 0.42 0.37 0.34 0.32 0.29 0.31 0.23
0.25 0.26 0.27 0.42 0.17 0.10 0.13 0.17 0.17 0.15 0.19 0.20 0.21 0.21 0.25 0.30 0.42 0.58 0.76 0.82 0.86 0.99 1.13 1.14 1.00 0.89 0.84 0.78 0.63 0.55 0.47 0.41 0.35 0.32 0.29 0.26 0.22 0.20 0.21 0.19 0.16 0.15 0.16 0.14
0.26 0.24 0.26 0.28 0.26 0.22 0.22 0.22 0.22 0.25 0.30 0.32 0.35 0.52 0.62 0.78 0.86 1.04 1.13 1.02 0.97 0.88 1.09 0.87 0.66 0.48 0.43 0.39 0.27 0.22 0.20 0.18 0.17 0.16 0.15 0.15 0.15 0.15 0.16 0.20 0.20 0.22 0.23 0.19
0.33 0.33 0.29 0.29 0.28 0.27 0.29 0.38 0.40 0.54 0.77 0.77 0.85 0.97 1.04 1.21 1.13 1.03 0.85 0.77 0.76 0.71 0.62 0.51 0.38 0.29 0.23 0.20 0.15 0.12 0.12 0.12 0.11 0.12 0.13 0.14 0.16 0.15 0.15 0.14 0.19 0.26 0.29 0.28
0.50 0.48 0.53 0.58 0.74 0.90 0.96 1.05 0.86 0.96 1.20 1.08 0.88 0.94 0.88 0.93 0.80 0.66 0.50 0.47 0.59 0.42 0.35 0.34 0.29 0.23 0.16 0.13 0.11 0.11 0.10 0.10 0.09 0.11 0.14 0.16 0.20 0.21 0.23 0.25 0.28 0.29 0.30 0.29
0.97 0.90 0.99 0.96 0.82 1.06 1.19 1.08 0.86 0.85 0.85 0.84 0.78 0.70 0.56 0.59 0.52 0.44 0.36 0.31 0.38 0.23 0.17 0.17 0.16 0.15 0.12 0.09 0.10 0.11 0.10 0.12 0.15 0.17 0.21 0.24 0.28 0.33 0.36 0.36 0.37 0.39 0.43 0.43
0.97 0.87 0.85 0.80 0.70 0.78 0.82 0.75 0.72 0.55 0.53 0.52 0.47 0.43 0.34 0.32 0.25 0.18 0.25 0.22 0.13 0.09 0.07 0.09 0.09 0.08 0.08 0.14 0.16 0.16 0.17 0.19 0.20 0.22 0.30 0.37 0.39 0.39 0.34 0.30 0.27 0.27 0.28 0.26
0.64 0.61 0.63 0.61 0.42 0.30 0.34 0.44 0.36 0.33 0.30 0.29 0.26 0.22 0.16 0.14 0.19 0.10 0.06 0.08 0.05 0.03 0.04 0.08 0.06 0.07 0.10 0.18 0.18 0.18 0.22 0.28 0.31 0.32 0.28 0.23 0.25 0.24 0.22 0.19 0.16 0.16 0.17 0.16
0.43 0.41 0.39 0.32 0.24 0.27 0.25 0.23 0.19 0.23 0.19 0.20 0.16 0.13 0.08 0.05 0.09 0.10 0.06 0.07 0.05 0.06 0.13 0.11 0.08 0.10 0.17 0.19 0.21 0.22 0.26 0.27 0.27 0.24 0.22 0.20 0.19 0.18 0.18 0.16 0.16 0.15 0.14 0.14
0.25 0.24 0.28 0.26 0.28 0.25 0.21 0.16 0.19 0.22 0.17 0.18 0.20 0.16 0.14 0.08 0.06 0.06 0.08 0.08 0.07 0.08 0.16 0.22 0.16 0.18 0.22 0.24 0.25 0.26 0.25 0.22 0.20 0.18 0.16 0.14 0.14 0.13 0.13 0.10 0.09 0.09 0.10 0.09
0.28 0.26 0.22 0.23 0.24 0.19 0.18 0.17 0.17 0.18 0.17 0.15 0.21 0.22 0.16 0.12 0.11 0.07 0.09 0.11 0.13 0.16 0.19 0.21 0.21 0.22 0.21 0.19 0.18 0.17 0.15 0.14 0.13 0.11 0.10 0.10 0.10 0.10 0.08 0.07 0.06 0.06 0.07 0.08

GFSNGP_prec_precacc_162.txt.gz
Total_Precipitation_Accumulation
0.39 0.29 0.34 0.42 0.32 0.26 0.49 0.61 0.96 0.40 0.41 0.63 1.14 1.24 0.80 0.29 0.17 0.18 0.16 0.13 0.21 0.23 0.23 0.23 0.31 0.37 0.45 0.58 1.06 1.21 1.46 1.92 1.82 1.57 1.43 1.52 1.54 1.41 0.88 0.77 0.66 0.53 0.49 0.47
0.42 0.40 0.33 0.25 0.11 0.25 0.36 0.38 0.53 0.41 0.51 0.67 0.84 0.97 0.74 0.60 0.36 0.27 0.25 0.22 0.24 0.28 0.29 0.29 0.28 0.24 0.29 0.38 0.45 0.62 0.72 1.17 1.61 1.98 1.30 1.35 1.62 1.84 1.41 0.99 1.07 0.85 0.92 0.73
0.52 0.30 0.58 0.47 0.08 0.12 0.20 0.36 0.59 0.73 0.51 0.40 0.55 0.69 0.47 0.46 0.43 0.38 0.41 0.23 0.22 0.23 0.21 0.25 0.27 0.27 0.33 0.40 0.38 0.49 0.65 1.01 1.16 1.44 1.87 1.48 1.69 1.88 2.15 1.77 1.42 1.41 1.17 1.14
0.78 0.46 1.01 0.25 0.17 0.27 0.28 0.45 0.54 0.59 0.46 0.40 0.37 0.74 0.76 0.40 0.50 0.54 0.65 0.77 0.45 0.39 0.38 0.42 0.48 0.52 0.56 0.62 0.69 0.77 0.87 1.04 1.25 1.18 1.69 2.05 1.76 1.73 1.75 1.86 1.92 1.82 1.46 1.27
1.05 0.82 0.38 0.16 0.28 0.53 0.62 0.62 0.44 0.39 0.33 0.29 0.29 0.38 0.77 0.67 0.54 0.63 0.75 0.98 1.25 0.84 0.74 0.88 0.91 1.02 1.18 1.24 1.25 1.19 1.40 1.56 1.72 1.79 1.83 1.94 2.24 2.06 2.08 1.89 1.84 1.82 1.60 1.30
0.96 1.08 0.70 0.73 0.26 0.21 0.62 0.72 0.31 0.30 0.31 0.36 0.35 0.48 0.59 0.65 0.79 0.90 0.84 0.71 0.74 1.10 1.15 1.12 1.33 1.13 1.15 1.36 1.50 1.62 1.60 1.68 1.77 1.81 1.93 2.15 2.42 2.48 2.30 2.09 1.78 1.50 1.52 1.47
0.83 1.00 0.73 0.47 0.26 0.36 0.75 0.75 0.25 0.33 0.37 0.44 0.71 0.67 0.92 0.93 1.05 1.14 0.64 0.55 0.58 0.55 0.77 1.04 1.13 1.33 1.32 1.30 1.48 1.63 1.83 1.66 1.55 1.54 1.66 1.75 1.71 1.78 2.02 2.17 2.06 1.79 1.69 1.51
1.20 1.65 1.02 0.12 0.30 0.64 0.83 0.46 0.31 0.38 0.40 0.43 0.50 0.49 0.87 0.93 0.98 0.98 0.75 0.45 0.38 0.43 0.43 0.36 0.30 0.42 0.84 1.28 1.62 1.76 1.78 1.56 1.38 1.32 1.33 1.39 1.37 1.41 1.36 1.45 1.74 2.00 1.84 1.77
1.00 0.97 0.56 0.30 0.43 0.49 0.41 0.42 0.44 0.60 0.64 0.60 0.71 0.88 0.91 0.89 0.98 1.11 0.76 0.29 0.16 0.15 0.10 0.08 0.09 0.11 0.22 0.48 0.86 1.28 1.44 1.38 1.22 1.09 0.97 0.85 0.90 1.07 1.19 1.19 1.13 1.19 1.29 1.45
0.96 0.67 0.39 0.53 0.44 0.25 0.25 0.28 0.30 0.31 0.74 1.07 1.30 1.29 1.27 1.27 1.02 0.84 0.60 0.20 0.07 0.03 0.02 0.08 0.11 0.13 0.16 0.29 0.41 0.50 0.56 0.67 0.68 0.66 0.71 0.65 0.63 0.65 0.67 0.76 0.84 0.97 1.05 1.10
1.03 0.97 0.70 0.66 0.94 0.62 0.44 0.32 0.32 0.33 0.25 0.41 0.56 0.63 0.45 0.46 0.54 0.55 0.57 0.39 0.16 0.12 0.15 0.18 0.13 0.14 0.22 0.29 0.37 0.50 0.55 0.55 0.55 0.54 0.51 0.50 0.55 0.60 0.54 0.70 0.69 0.72 0.88 0.91
0.91 1.14 1.28 1.36 0.89 0.72 0.81 0.61 0.44 0.22 0.18 0.24 0.33 0.43 0.43 0.38 0.34 0.38 0.47 0.45 0.36 0.32 0.27 0.23 0.21 0.32 0.39 0.36 0.29 0.33 0.38 0.45 0.49 0.41 0.38 0.36 0.36 0.51 0.70 0.74 0.66 0.68 0.76 0.78
0.99 1.04 1.08 0.97 0.61 0.38 0.29 0.34 0.34 0.24 0.22 0.22 0.30 0.29 0.27 0.42 0.38 0.37 0.38 0.46 0.55 0.54 0.49 0.47 0.47 0.54 0.59 0.57 0.46 0.41 0.37 0.37 0.43 0.43 0.44 0.45 0.47 0.46 0.64 0.84 0.84 0.97 1.01 1.03
0.69 0.61 0.41 0.33 0.27 0.16 0.07 0.05 0.04 0.04 0.07 0.07 0.12 0.14 0.21 0.30 0.32 0.25 0.28 0.29 0.28 0.35 0.52 0.65 0.76 0.94 1.12 1.11 1.10 1.14 1.22 1.18 1.05 1.00 1.05 1.18 1.28 1.40 1.45 1.47 1.48 1.57 1.52 1.27
0.38 0.29 0.20 0.13 0.08 0.05 0.04 0.12 0.21 0.18 0.18 0.23 0.28 0.41 0.33 0.22 0.16 0.16 0.16 0.16 0.21 0.26 0.41 0.57 0.73 1.09 1.29 1.42 1.57 1.79 1.90 2.01 1.96 1.87 1.73 1.52 1.34 1.24 1.21 1.20 1.18 1.21 1.19 1.12
0.22 0.12 0.08 0.09 0.06 0.05 0.02 0.03 0.25 0.36 0.43 0.44 0.44 0.23 0.13 0.12 0.15 0.18 0.19 0.21 0.22 0.32 0.41 0.48 0.65 1.02 1.13 1.23 1.31 1.37 1.33 1.24 1.09 1.01 0.95 0.88 0.83 0.76 0.71 0.67 0.62 0.60 0.56 0.56
0.21 0.24 0.22 0.31 0.21 0.09 0.05 0.07 0.18 0.16 0.31 0.30 0.20 0.13 0.09 0.10 0.13 0.23 0.38 0.47 0.49 0.64 0.77 0.81 1.11 1.18 1.09 0.98 0.82 0.81 0.80 0.80 0.72 0.65 0.62 0.57 0.51 0.44 0.37 0.34 0.32 0.30 0.31 0.23
0.25 0.26 0.27 0.44 0.18 0.11 0.14 0.20 0.22 0.16 0.20 0.22 0.21 0.21 0.25 0.30 0.42 0.58 0.76 0.82 0.87 1.00 1.13 1.14 1.00 0.90 0.84 0.78 0.63 0.55 0.47 0.42 0.36 0.32 0.29 0.26 0.22 0.20 0.21 0.20 0.16 0.15 0.16 0.14
0.26 0.24 0.26 0.28 0.26 0.23 0.23 0.22 0.23 0.25 0.30 0.32 0.35 0.52 0.62 0.78 0.86 1.04 1.13 1.02 0.98 0.88 1.09 0.87 0.67 0.49 0.44 0.39 0.27 0.22 0.20 0.19 0.17 0.16 0.15 0.15 0.15 0.15 0.16 0.20 0.20 0.22 0.23 0.19
0.33 0.33 0.29 0.29 0.28 0.30 0.31 0.38 0.41 0.54 0.77 0.77 0.85 0.97 1.04 1.21 1.14 1.03 0.85 0.77 0.76 0.71 0.63 0.51 0.39 0.30 0.23 0.20 0.15 0.12 0.12 0.12 0.11 0.12 0.13 0.15 0.17 0.16 0.15 0.14 0.19 0.27 0.29 0.28
0.50 0.49 0.54 0.58 0.74 0.90 0.97 1.05 0.86 0.96 1.20 1.08 0.88 0.94 0.88 0.94 0.81 0.66 0.50 0.47 0.59 0.42 0.36 0.34 0.29 0.23 0.16 0.13 0.11 0.11 0.11 0.11 0.09 0.11 0.15 0.17 0.20 0.21 0.24 0.26 0.28 0.29 0.30 0.29
0.97 0.90 1.00 0.96 0.82 1.06 1.19 1.08 0.86 0.85 0.85 0.84 0.78 0.70 0.56 0.59 0.52 0.44 0.36 0.31 0.38 0.23 0.17 0.17 0.16 0.15 0.12 0.09 0.10 0.11 0.10 0.12 0.15 0.17 0.21 0.24 0.28 0.33 0.36 0.36 0.38 0.39 0.43 0.43
0.97 0.87 0.86 0.81 0.71 0.78 0.82 0.75 0.72 0.55 0.53 0.52 0.47 0.43 0.34 0.32 0.25 0.18 0.25 0.22 0.13 0.09 0.07 0.09 0.09 0.09 0.08 0.14 0.16 0.16 0.17 0.19 0.20 0.22 0.30 0.37 0.39 0.39 0.34 0.30 0.27 0.27 0.29 0.26
0.64 0.62 0.64 0.61 0.43 0.31 0.35 0.45 0.36 0.33 0.30 0.29 0.26 0.22 0.16 0.14 0.19 0.10 0.06 0.08 0.05 0.04 0.04 0.08 0.06 0.07 0.11 0.18 0.18 0.18 0.22 0.28 0.31 0.32 0.28 0.23 0.25 0.24 0.22 0.19 0.16 0.16 0.17 0.16
0.43 0.42 0.39 0.32 0.25 0.28 0.26 0.23 0.19 0.23 0.19 0.20 0.16 0.13 0.08 0.05 0.10 0.11 0.06 0.07 0.05 0.06 0.13 0.11 0.08 0.10 0.17 0.20 0.21 0.22 0.26 0.27 0.27 0.24 0.22 0.20 0.19 0.18 0.18 0.16 0.16 0.15 0.14 0.14
0.25 0.24 0.28 0.27 0.29 0.25 0.21 0.16 0.19 0.22 0.17 0.18 0.21 0.16 0.14 0.08 0.06 0.06 0.08 0.08 0.07 0.08 0.16 0.22 0.16 0.18 0.22 0.24 0.25 0.26 0.25 0.22 0.20 0.18 0.16 0.14 0.14 0.14 0.14 0.10 0.09 0.09 0.10 0.09
0.28 0.26 0.22 0.23 0.24 0.19 0.18 0.17 0.17 0.18 0.17 0.16 0.21 0.23 0.16 0.13 0.11 0.07 0.09 0.12 0.13 0.16 0.19 0.21 0.22 0.23 0.22 0.19 0.19 0.17 0.15 0.14 0.13 0.11 0.10 0.10 0.10 0.10 0.08 0.07 0.06 0.06 0.07 0.08

GFSNGP_prec_precacc_165.txt.gz
Total_Precipitation_Accumulation
0.39 0.29 0.34 0.42 0.32 0.26 0.49 0.61 0.97 0.41 0.42 0.63 1.15 1.24 0.80 0.29 0.17 0.18 0.16 0.13 0.21 0.23 0.23 0.23 0.31 0.37 0.45 0.58 1.06 1.21 1.46 1.92 1.82 1.57 1.43 1.52 1.54 1.41 0.88 0.77 0.66 0.53 0.49 0.48
0.42 0.40 0.33 0.25 0.11 0.25 0.36 0.39 0.53 0.42 0.51 0.67 0.84 0.97 0.74 0.60 0.36 0.27 0.25 0.22 0.24 0.28 0.29 0.29 0.28 0.24 0.29 0.38 0.45 0.62 0.72 1.17 1.61 1.98 1.30 1.35 1.62 1.84 1.41 0.99 1.07 0.86 0.94 0.77
0.53 0.31 0.59 0.48 0.08 0.12 0.20 0.36 0.59 0.73 0.51 0.40 0.55 0.69 0.47 0.46 0.43 0.38 0.41 0.23 0.22 0.23 0.21 0.25 0.27 0.27 0.33 0.40 0.38 0.49 0.65 1.01 1.16 1.44 1.87 1.48 1.69 1.88 2.15 1.77 1.43 1.48 1.28 1.25
0.81 0.48 1.05 0.26 0.17 0.27 0.28 0.45 0.54 0.59 0.46 0.40 0.37 0.74 0.76 0.40 0.50 0.54 0.65 0.77 0.45 0.39 0.38 0.42 0.48 0.52 0.56 0.62 0.69 0.77 0.87 1.04 1.25 1.18 1.69 2.05 1.76 1.74 1.76 1.89 2.00 1.92 1.58 1.38
1.08 0.85 0.39 0.16 0.28 0.53 0.62 0.62 0.44 0.39 0.33 0.29 0.29 0.38 0.77 0.67 0.54 0.63 0.75 0.98 1.25 0.84 0.75 0.89 0.91 1.02 1.18 1.24 1.25 1.19 1.40 1.56 1.72 1.79 1.83 1.94 2.24 2.07 2.10 1.94 1.92 1.92 1.70 1.38
0.97 1.09 0.70 0.73 0.26 0.21 0.62 0.72 0.31 0.30 0.31 0.36 0.35 0.48 0.59 0.65 0.79 0.90 0.84 0.71 0.74 1.10 1.15 1.12 1.33 1.13 1.15 1.36 1.50 1.62 1.60 1.68 1.77 1.81 1.93 2.15 2.42 2.49 2.33 2.11 1.81 1.55 1.59 1.54
0.83 1.00 0.73 0.47 0.26 0.36 0.75 0.75 0.25 0.33 0.37 0.44 0.71 0.67 0.92 0.93 1.05 1.14 0.64 0.55 0.58 0.55 0.77 1.04 1.13 1.33 1.32 1.30 1.48 1.63 1.83 1.66 1.55 1.54 1.66 1.75 1.71 1.79 2.03 2.19 2.10 1.83 1.74 1.56
1.20 1.65 1.02 0.12 0.30 0.64 0.83 0.46 0.31 0.38 0.40 0.43 0.50 0.49 0.87 0.93 0.98 0.98 0.75 0.45 0.38 0.43 0.43 0.36 0.30 0.42 0.84 1.28 1.62 1.76 1.78 1.56 1.38 1.32 1.34 1.40 1.39 1.43 1.38 1.48 1.78 2.03 1.87 1.81
1.00 0.97 0.56 0.30 0.43 0.49 0.41 0.42 0.44 0.60 0.64 0.60 0.71 0.88 0.91 0.89 0.98 1.11 0.76 0.29 0.16 0.15 0.10 0.08 0.09 0.11 0.22 0.48 0.86 1.28 1.44 1.38 1.22 1.10 0.98 0.86 0.91 1.08 1.21 1.21 1.17 1.23 1.32 1.48
0.96 0.67 0.39 0.53 0.44 0.25 0.25 0.28 0.30 0.31 0.74 1.07 1.30 1.29 1.27 1.27 1.02 0.84 0.60 0.20 0.07 0.03 0.02 0.08 0.11 0.13 0.16 0.29 0.41 0.50 0.56 0.67 0.68 0.67 0.72 0.66 0.64 0.66 0.68 0.78 0.88 1.01 1.10 1.15
1.03 0.97 0.70 0.66 0.94 0.62 0.44 0.32 0.32 0.33 0.25 0.41 0.56 0.63 0.45 0.46 0.54 0.55 0.57 0.39 0.16 0.12 0.15 0.18 0.13 0.14 0.22 0.29 0.37 0.50 0.55 0.55 0.55 0.55 0.52 0.51 0.56 0.61 0.55 0.73 0.73 0.76 0.93 0.95
0.91 1.14 1.28 1.36 0.89 0.72 0.81 0.61 0.44 0.22 0.18 0.24 0.33 0.43 0.43 0.38 0.34 0.38 0.47 0.45 0.36 0.32 0.27 0.23 0.21 0.32 0.39 0.36 0.29 0.33 0.38 0.45 0.50 0.43 0.39 0.38 0.38 0.55 0.74 0.77 0.72 0.75 0.81 0.82
0.99 1.04 1.08 0.97 0.61 0.38 0.29 0.34 0.34 0.24 0.22 0.22 0.30 0.29 0.27 0.42 0.38 0.37 0.38 0.46 0.55 0.54 0.49 0.47 0.47 0.54 0.59 0.57 0.46 0.42 0.38 0.38 0.45 0.45 0.46 0.47 0.51 0.50 0.67 0.89 0.90 1.05 1.07 1.05
0.69 0.61 0.41 0.33 0.27 0.16 0.07 0.05 0.04 0.04 0.07 0.07 0.12 0.14 0.21 0.30 0.32 0.25 0.28 0.29 0.28 0.35 0.52 0.65 0.76 0.94 1.12 1.12 1.11 1.15 1.23 1.19 1.06 1.01 1.07 1.22 1.34 1.44 1.48 1.52 1.52 1.64 1.59 1.30
0.38 0.29 0.20 0.13 0.08 0.05 0.04 0.12 0.21 0.18 0.18 0.23 0.28 0.41 0.33 0.22 0.16 0.16 0.16 0.16 0.21 0.26 0.41 0.57 0.73 1.09 1.29 1.42 1.58 1.80 1.91 2.02 1.97 1.89 1.76 1.54 1.38 1.27 1.24 1.24 1.23 1.26 1.25 1.16
0.22 0.12 0.08 0.09 0.06 0.05 0.02 0.03 0.25 0.36 0.43 0.44 0.44 0.23 0.13 0.12 0.15 0.18 0.19 0.21 0.22 0.32 0.41 0.48 0.66 1.02 1.13 1.24 1.32 1.38 1.33 1.25 1.10 1.03 0.98 0.90 0.85 0.77 0.72 0.68 0.63 0.61 0.57 0.57
0.21 0.24 0.22 0.31 0.21 0.09 0.05 0.08 0.18 0.16 0.31 0.31 0.24 0.15 0.10 0.10 0.13 0.23 0.38 0.47 0.49 0.64 0.77 0.81 1.11 1.18 1.10 0.98 0.83 0.82 0.80 0.80 0.73 0.66 0.64 0.58 0.52 0.44 0.38 0.35 0.33 0.30 0.32 0.24
0.25 0.26 0.27 0.44 0.18 0.13 0.23 0.29 0.23 0.16 0.22 0.26 0.22 0.23 0.26 0.30 0.42 0.58 0.76 0.82 0.87 1.00 1.13 1.14 1.00 0.91 0.84 0.78 0.64 0.55 0.47 0.42 0.37 0.33 0.29 0.27 0.23 0.20 0.21 0.20 0.16 0.15 0.16 0.15
0.26 0.24 0.26 0.28 0.26 0.24 0.25 0.23 0.23 0.26 0.31 0.33 0.36 0.52 0.63 0.78 0.86 1.04 1.13 1.02 0.98 0.89 1.09 0.87 0.68 0.50 0.44 0.39 0.27 0.22 0.20 0.19 0.17 0.17 0.16 0.16 0.16 0.15 0.16 0.20 0.20 0.22 0.23 0.19
0.33 0.33 0.29 0.29 0.28 0.30 0.32 0.39 0.41 0.54 0.77 0.77 0.85 0.97 1.04 1.21 1.14 1.03 0.85 0.77 0.76 0.71 0.63 0.51 0.39 0.30 0.23 0.20 0.15 0.12 0.12 0.12 0.11 0.12 0.13 0.15 0.17 0.16 0.15 0.14 0.19 0.27 0.29 0.28
0.50 0.49 0.54 0.58 0.74 0.91 0.97 1.05 0.86 0.96 1.20 1.08 0.88 0.94 0.88 0.94 0.81 0.66 0.50 0.47 0.60 0.42 0.36 0.35 0.29 0.23 0.17 0.13 0.12 0.11 0.11 0.11 0.09 0.12 0.15 0.17 0.20 0.21 0.24 0.26 0.28 0.29 0.31 0.29
0.97 0.91 1.00 0.96 0.83 1.07 1.19 1.08 0.86 0.85 0.85 0.85 0.78 0.70 0.56 0.59 0.52 0.44 0.36 0.31 0.38 0.24 0.18 0.17 0.16 0.15 0.12 0.10 0.10 0.11 0.11 0.12 0.15 0.18 0.21 0.24 0.28 0.33 0.36 0.36 0.38 0.39 0.43 0.43
0.97 0.87 0.86 0.81 0.72 0.80 0.83 0.76 0.72 0.55 0.53 0.52 0.47 0.43 0.34 0.32 0.25 0.18 0.25 0.22 0.13 0.09 0.07 0.09 0.09 0.09 0.08 0.14 0.16 0.16 0.17 0.19 0.20 0.22 0.30 0.37 0.39 0.39 0.34 0.30 0.27 0.27 0.29 0.26
0.65 0.62 0.64 0.62 0.43 0.31 0.35 0.46 0.37 0.33 0.30 0.29 0.26 0.22 0.16 0.14 0.19 0.10 0.06 0.08 0.05 0.04 0.04 0.08 0.06 0.08 0.11 0.18 0.18 0.18 0.22 0.28 0.31 0.32 0.28 0.23 0.25 0.24 0.22 0.19 0.16 0.16 0.17 0.16
0.44 0.42 0.40 0.34 0.26 0.30 0.29 0.26 0.21 0.23 0.20 0.20 0.16 0.13 0.08 0.05 0.10 0.11 0.06 0.07 0.06 0.06 0.14 0.11 0.08 0.10 0.18 0.20 0.21 0.22 0.26 0.27 0.27 0.24 0.22 0.20 0.19 0.18 0.18 0.16 0.16 0.15 0.14 0.14
0.25 0.24 0.28 0.27 0.29 0.26 0.22 0.18 0.21 0.23 0.17 0.19 0.21 0.16 0.14 0.08 0.06 0.06 0.08 0.08 0.07 0.08 0.16 0.23 0.16 0.18 0.22 0.24 0.25 0.26 0.25 0.22 0.20 0.18 0.16 0.14 0.14 0.14 0.14 0.10 0.09 0.09 0.10 0.09
0.28 0.26 0.23 0.24 0.24 0.19 0.18 0.17 0.18 0.19 0.17 0.16 0.22 0.23 0.16 0.13 0.11 0.07 0.09 0.12 0.13 0.16 0.19 0.21 0.22 0.23 0.22 0.19 0.19 0.17 0.15 0.14 0.13 0.11 0.10 0.10 0.10 0.10 0.08 0.07 0.06 0.06 0.07 0.08

GFSNGP_prec_precacc_168.txt.gz
Total_Precipitation_Accumulation
0.39 0.29 0.34 0.42 0.32 0.26 0.49 0.61 0.97 0.41 0.42 0.64 1.15 1.24 0.80 0.29 0.17 0.18 0.16 0.13 0.21 0.23 0.23 0.23 0.31 0.37 0.45 0.58 1.06 1.21 1.46 1.92 1.82 1.57 1.43 1.52 1.54 1.41 0.88 0.77 0.66 0.53 0.49 0.48
0.42 0.40 0.33 0.25 0.11 0.25 0.36 0.39 0.53 0.42 0.51 0.67 0.84 0.97 0.74 0.60 0.36 0.27 0.25 0.22 0.24 0.28 0.29 0.29 0.28 0.24 0.29 0.38 0.45 0.62 0.72 1.17 1.61 1.98 1.30 1.35 1.62 1.84 1.41 0.99 1.07 0.86 0.94 0.78
0.53 0.31 0.59 0.48 0.08 0.12 0.20 0.36 0.59 0.73 0.51 0.40 0.55 0.69 0.47 0.46 0.43 0.38 0.41 0.23 0.22 0.23 0.21 0.25 0.27 0.27 0.33 0.40 0.38 0.49 0.65 1.01 1.16 1.44 1.87 1.48 1.69 1.88 2.15 1.78 1.43 1.48 1.28 1.26
0.89 0.51 1.10 0.27 0.17 0.27 0.28 0.45 0.54 0.59 0.46 0.40 0.37 0.74 0.76 0.40 0.50 0.54 0.65 0.77 0.45 0.39 0.38 0.42 0.48 0.52 0.56 0.62 0.69 0.77 0.87 1.04 1.25 1.18 1.69 2.05 1.76 1.74 1.76 1.89 2.00 1.92 1.59 1.41
1.24 0.95 0.42 0.16 0.28 0.53 0.62 0.62 0.44 0.39 0.33 0.29 0.29 0.38 0.77 0.67 0.54 0.63 0.75 0.98 1.25 0.84 0.75 0.89 0.91 1.02 1.18 1.24 1.25 1.19 1.40 1.56 1.72 1.79 1.83 1.94 2.24 2.07 2.10 1.94 1.92 1.92 1.72 1.41
1.15 1.21 0.77 0.74 0.26 0.21 0.62 0.72 0.31 0.30 0.31 0.36 0.35 0.48 0.59 0.65 0.79 0.90 0.84 0.71 0.74 1.10 1.15 1.12 1.33 1.13 1.15 1.37 1.51 1.62 1.60 1.68 1.77 1.81 1.93 2.15 2.42 2.49 2.33 2.11 1.82 1.56 1.62 1.56
0.90 1.04 0.73 0.47 0.26 0.36 0.75 0.75 0.25 0.33 0.37 0.44 0.71 0.67 0.92 0.93 1.05 1.14 0.64 0.55 0.58 0.55 0.77 1.04 1.13 1.33 1.32 1.31 1.48 1.63 1.83 1.66 1.55 1.54 1.66 1.75 1.71 1.79 2.03 2.19 2.11 1.85 1.75 1.57
1.24 1.67 1.03 0.12 0.30 0.64 0.83 0.46 0.31 0.38 0.40 0.43 0.50 0.49 0.87 0.93 0.98 0.98 0.75 0.45 0.38 0.43 0.43 0.36 0.30 0.42 0.84 1.28 1.62 1.76 1.78 1.56 1.38 1.32 1.34 1.40 1.39 1.43 1.38 1.48 1.78 2.03 1.88 1.82
1.00 0.97 0.56 0.30 0.43 0.49 0.41 0.42 0.44 0.60 0.64 0.60 0.71 0.88 0.91 0.89 0.98 1.11 0.76 0.29 0.16 0.15 0.10 0.08 0.09 0.11 0.22 0.48 0.86 1.28 1.44 1.38 1.22 1.10 0.98 0.86 0.91 1.08 1.21 1.21 1.17 1.24 1.33 1.50
0.96 0.67 0.39 0.53 0.44 0.25 0.25 0.28 0.30 0.31 0.74 1.07 1.30 1.29 1.27 1.27 1.02 0.84 0.60 0.20 0.07 0.03 0.02 0.08 0.11 0.13 0.16 0.29 0.41 0.50 0.56 0.67 0.68 0.67 0.73 0.67 0.64 0.66 0.68 0.78 0.88 1.02 1.11 1.16
1.03 0.97 0.70 0.66 0.94 0.62 0.44 0.32 0.32 0.33 0.25 0.41 0.56 0.63 0.45 0.46 0.54 0.55 0.57 0.39 0.16 0.12 0.15 0.18 0.13 0.14 0.22 0.29 0.37 0.50 0.55 0.55 0.55 0.55 0.53 0.52 0.57 0.62 0.56 0.73 0.73 0.76 0.94 0.98
0.91 1.14 1.28 1.36 0.89 0.72 0.81 0.61 0.44 0.22 0.18 0.24 0.33 0.43 0.43 0.38 0.34 0.38 0.47 0.45 0.36 0.32 0.27 0.23 0.21 0.32 0.39 0.36 0.29 0.33 0.38 0.46 0.51 0.43 0.40 0.38 0.38 0.56 0.75 0.78 0.74 0.77 0.83 0.86
0.99 1.04 1.08 0.97 0.61 0.38 0.29 0.34 0.34 0.24 0.22 0.22 0.30 0.29 0.27 0.42 0.38 0.37 0.38 0.46 0.55 0.54 0.49 0.47 0.47 0.54 0.59 0.57 0.46 0.42 0.38 0.38 0.45 0.46 0.46 0.48 0.51 0.50 0.69 0.92 0.94 1.09 1.11 1.10
0.69 0.61 0.41 0.33 0.27 0.16 0.07 0.05 0.04 0.04 0.07 0.07 0.12 0.14 0.21 0.30 0.32 0.25 0.28 0.29 0.28 0.35 0.52 0.65 0.76 0.94 1.12 1.12 1.11 1.15 1.23 1.19 1.06 1.02 1.07 1.22 1.34 1.45 1.50 1.55 1.57 1.70 1.66 1.38
0.38 0.29 0.20 0.13 0.08 0.05 0.04 0.12 0.21 0.18 0.18 0.23 0.28 0.41 0.33 0.22 0.16 0.16 0.16 0.16 0.21 0.26 0.42 0.58 0.73 1.09 1.29 1.43 1.58 1.80 1.91 2.02 1.97 1.89 1.76 1.55 1.38 1.28 1.25 1.26 1.25 1.30 1.30 1.23
0.22 0.12 0.08 0.09 0.06 0.05 0.02 0.03 0.25 0.36 0.43 0.44 0.44 0.23 0.13 0.12 0.15 0.18 0.19 0.21 0.22 0.32 0.42 0.48 0.66 1.02 1.14 1.24 1.32 1.38 1.33 1.25 1.10 1.03 0.99 0.91 0.86 0.78 0.73 0.69 0.65 0.64 0.59 0.58
0.21 0.24 0.22 0.31 0.21 0.09 0.05 0.08 0.18 0.16 0.31 0.31 0.24 0.15 0.11 0.10 0.13 0.23 0.38 0.48 0.49 0.64 0.77 0.81 1.11 1.18 1.10 0.98 0.83 0.82 0.80 0.80 0.73 0.66 0.64 0.59 0.53 0.45 0.39 0.36 0.34 0.32 0.33 0.25
0.25 0.26 0.27 0.44 0.18 0.13 0.23 0.29 0.23 0.16 0.22 0.26 0.23 0.27 0.35 0.36 0.43 0.58 0.77 0.85 0.88 1.00 1.13 1.14 1.01 0.91 0.85 0.79 0.64 0.56 0.47 0.42 0.37 0.33 0.30 0.27 0.23 0.21 0.21 0.20 0.16 0.16 0.17 0.16
0.26 0.24 0.26 0.28 0.26 0.24 0.25 0.23 0.23 0.26 0.31 0.33 0.36 0.53 0.67 0.83 0.90 1.07 1.15 1.03 0.98 0.89 1.09 0.87 0.68 0.50 0.44 0.39 0.27 0.22 0.20 0.19 0.17 0.17 0.16 0.16 0.16 0.15 0.16 0.20 0.20 0.22 0.23 0.19
0.33 0.33 0.29 0.29 0.28 0.30 0.32 0.39 0.41 0.54 0.78 0.77 0.85 0.97 1.05 1.23 1.15 1.04 0.85 0.78 0.76 0.71 0.63 0.51 0.40 0.30 0.23 0.20 0.16 0.12 0.12 0.12 0.11 0.13 0.14 0.15 0.17 0.16 0.15 0.14 0.19 0.27 0.29 0.28
0.50 0.49 0.54 0.58 0.74 0.91 0.97 1.05 0.86 0.96 1.20 1.08 0.88 0.94 0.88 0.94 0.81 0.66 0.50 0.47 0.60 0.42 0.36 0.35 0.30 0.23 0.17 0.14 0.12 0.12 0.11 0.11 0.10 0.12 0.15 0.17 0.20 0.21 0.24 0.26 0.28 0.29 0.31 0.30
0.97 0.91 1.00 0.97 0.83 1.07 1.19 1.08 0.86 0.85 0.85 0.85 0.78 0.70 0.56 0.60 0.52 0.44 0.36 0.31 0.38 0.24 0.18 0.17 0.16 0.15 0.12 0.10 0.10 0.11 0.11 0.13 0.15 0.18 0.22 0.24 0.28 0.33 0.36 0.36 0.38 0.39 0.43 0.43
0.97 0.87 0.86 0.82 0.73 0.82 0.84 0.76 0.72 0.55 0.54 0.53 0.47 0.43 0.34 0.32 0.25 0.18 0.26 0.22 0.13 0.10 0.07 0.09 0.09 0.09 0.09 0.15 0.16 0.16 0.18 0.20 0.20 0.22 0.30 0.37 0.39 0.39 0.34 0.30 0.27 0.27 0.29 0.26
0.65 0.62 0.65 0.62 0.44 0.32 0.37 0.46 0.37 0.34 0.31 0.29 0.26 0.22 0.16 0.14 0.19 0.10 0.06 0.08 0.05 0.04 0.04 0.09 0.06 0.08 0.11 0.18 0.18 0.18 0.22 0.28 0.31 0.32 0.28 0.23 0.25 0.24 0.22 0.19 0.16 0.16 0.17 0.16
0.44 0.42 0.40 0.34 0.27 0.31 0.30 0.28 0.23 0.26 0.20 0.20 0.16 0.13 0.08 0.05 0.10 0.11 0.06 0.07 0.06 0.06 0.14 0.11 0.08 0.10 0.18 0.20 0.21 0.22 0.26 0.27 0.27 0.24 0.22 0.20 0.19 0.18 0.18 0.16 0.16 0.15 0.14 0.14
0.25 0.24 0.28 0.28 0.29 0.26 0.23 0.18 0.22 0.25 0.18 0.19 0.21 0.16 0.14 0.08 0.06 0.06 0.08 0.08 0.07 0.09 0.17 0.23 0.17 0.18 0.22 0.24 0.25 0.26 0.25 0.22 0.20 0.18 0.16 0.14 0.14 0.14 0.14 0.10 0.09 0.09 0.10 0.09
0.28 0.26 0.23 0.24 0.24 0.19 0.18 0.17 0.18 0.20 0.18 0.16 0.22 0.24 0.17 0.13 0.11 0.07 0.09 0.12 0.14 0.16 0.20 0.22 0.23 0.23 0.22 0.20 0.19 0.17 0.15 0.14 0.13 0.11 0.10 0.10 0.10 0.10 0.08 0.07 0.06 0.06 0.07 0.08

GFSNGP_prec_precacc_171.txt.gz
Total_Precipitation_Accumulation
0.39 0.29 0.34 0.42 0.32 0.26 0.49 0.61 0.97 0.41 0.42 0.64 1.15 1.24 0.80 0.29 0.17 0.18 0.16 0.13 0.21 0.23 0.23 0.23 0.31 0.37 0.45 0.58 1.06 1.21 1.46 1.92 1.82 1.57 1.43 1.52 1.54 1.41 0.88 0.77 0.66 0.53 0.49 0.48
0.42 0.40 0.33 0.25 0.11 0.25 0.36 0.39 0.53 0.42 0.51 0.67 0.84 0.97 0.74 0.60 0.36 0.27 0.25 0.22 0.24 0.28 0.29 0.29 0.28 0.24 0.29 0.38 0.45 0.62 0.72 1.17 1.61 1.98 1.30 1.35 1.62 1.84 1.41 0.99 1.07 0.86 0.94 0.78
0.55 0.31 0.59 0.48 0.08 0.12 0.20 0.36 0.59 0.73 0.51 0.40 0.55 0.69 0.47 0.46 0.43 0.38 0.41 0.23 0.22 0.23 0.21 0.25 0.27 0.27 0.33 0.40 0.38 0.49 0.65 1.01 1.16 1.44 1.87 1.48 1.69 1.88 2.15 1.78 1.43 1.48 1.28 1.26
0.93 0.54 1.15 0.27 0.17 0.27 0.28 0.45 0.54 0.59 0.46 0.40 0.37 0.74 0.76 0.40 0.50 0.54 0.65 0.77 0.45 0.39 0.38 0.42 0.48 0.52 0.56 0.62 0.69 0.77 0.87 1.04 1.25 1.18 1.69 2.05 1.76 1.74 1.76 1.89 2.00 1.92 1.59 1.41
1.35 1.05 0.46 0.16 0.28 0.53 0.62 0.62 0.44 0.39 0.33 0.29 0.29 0.38 0.77 0.67 0.54 0.63 0.75 0.98 1.25 0.84 0.75 0.89 0.91 1.02 1.18 1.24 1.25 1.19 1.40 1.56 1.72 1.79 1.83 1.94 2.24 2.07 2.10 1.94 1.92 1.92 1.72 1.41
1.27 1.33 0.86 0.75 0.26 0.21 0.62 0.73 0.31 0.30 0.31 0.36 0.35 0.48 0.59 0.65 0.79 0.90 0.84 0.71 0.74 1.10 1.15 1.12 1.33 1.13 1.15 1.37 1.51 1.62 1.60 1.68 1.77 1.81 1.93 2.15 2.42 2.49 2.33 2.11 1.82 1.56 1.62 1.56
1.05 1.16 0.78 0.47 0.26 0.36 0.77 0.76 0.25 0.33 0.37 0.44 0.71 0.67 0.92 0.93 1.05 1.14 0.64 0.55 0.58 0.55 0.77 1.04 1.13 1.33 1.32 1.31 1.48 1.63 1.83 1.66 1.55 1.54 1.66 1.75 1.71 1.79 2.03 2.19 2.11 1.85 1.75 1.58
1.33 1.77 1.07 0.12 0.30 0.64 0.83 0.46 0.31 0.38 0.40 0.43 0.50 0.49 0.87 0.93 0.98 0.98 0.75 0.45 0.38 0.43 0.43 0.36 0.30 0.42 0.84 1.28 1.62 1.76 1.78 1.56 1.38 1.32 1.34 1.40 1.39 1.43 1.38 1.49 1.78 2.04 1.89 1.83
1.00 0.98 0.56 0.30 0.43 0.49 0.41 0.42 0.44 0.60 0.64 0.60 0.71 0.88 0.91 0.89 0.98 1.11 0.76 0.29 0.16 0.15 0.10 0.08 0.09 0.11 0.22 0.48 0.86 1.28 1.44 1.38 1.22 1.10 0.98 0.86 0.91 1.09 1.21 1.22 1.17 1.24 1.33 1.50
0.96 0.67 0.39 0.53 0.44 0.25 0.25 0.28 0.30 0.31 0.74 1.07 1.30 1.29 1.27 1.27 1.02 0.84 0.60 0.20 0.07 0.03 0.02 0.08 0.11 0.13 0.16 0.29 0.41 0.50 0.56 0.67 0.68 0.67 0.73 0.67 0.64 0.66 0.68 0.78 0.89 1.02 1.11 1.17
1.03 0.97 0.70 0.66 0.94 0.62 0.44 0.32 0.32 0.33 0.25 0.41 0.56 0.63 0.45 0.46 0.54 0.55 0.57 0.39 0.16 0.12 0.15 0.18 0.13 0.14 0.22 0.29 0.37 0.50 0.55 0.55 0.55 0.55 0.53 0.52 0.57 0.62 0.56 0.73 0.73 0.76 0.94 0.98
0.91 1.14 1.28 1.36 0.89 0.72 0.81 0.61 0.44 0.22 0.18 0.24 0.33 0.43 0.43 0.38 0.34 0.38 0.47 0.45 0.36 0.32 0.27 0.23 0.21 0.32 0.39 0.36 0.29 0.33 0.38 0.46 0.51 0.44 0.40 0.39 0.39 0.56 0.76 0.78 0.74 0.77 0.83 0.86
0.99 1.04 1.08 0.97 0.61 0.38 0.29 0.34 0.34 0.24 0.22 0.22 0.30 0.29 0.27 0.42 0.38 0.37 0.38 0.46 0.55 0.54 0.49 0.47 0.47 0.54 0.59 0.57 0.46 0.42 0.38 0.38 0.46 0.46 0.46 0.48 0.52 0.51 0.69 0.93 0.94 1.09 1.12 1.11
0.69 0.61 0.41 0.33 0.27 0.16 0.07 0.05 0.04 0.04 0.07 0.07 0.12 0.14 0.21 0.30 0.32 0.25 0.28 0.29 0.28 0.35 0.52 0.65 0.76 0.94 1.12 1.12 1.11 1.15 1.23 1.19 1.07 1.02 1.07 1.22 1.35 1.45 1.50 1.55 1.58 1.71 1.67 1.39
0.38 0.29 0.20 0.13 0.08 0.05 0.04 0.12 0.21 0.18 0.18 0.23 0.28 0.41 0.33 0.22 0.16 0.16 0.16 0.16 0.21 0.26 0.42 0.58 0.74 1.10 1.30 1.43 1.58 1.80 1.91 2.02 1.97 1.89 1.76 1.55 1.39 1.28 1.25 1.26 1.25 1.30 1.31 1.24
0.22 0.12 0.08 0.09 0.06 0.05 0.02 0.03 0.25 0.36 0.43 0.44 0.44 0.23 0.13 0.12 0.15 0.18 0.19 0.21 0.22 0.32 0.43 0.50 0.68 1.03 1.14 1.24 1.32 1.38 1.33 1.25 1.10 1.03 0.99 0.92 0.86 0.78 0.74 0.69 0.66 0.64 0.59 0.58
0.21 0.24 0.22 0.31 0.21 0.09 0.05 0.08 0.18 0.16 0.31 0.31 0.24 0.15 0.11 0.10 0.13 0.23 0.38 0.48 0.50 0.66 0.80 0.84 1.12 1.18 1.10 0.99 0.83 0.82 0.80 0.81 0.73 0.66 0.64 0.59 0.53 0.45 0.39 0.36 0.34 0.32 0.34 0.25
0.26 0.26 0.27 0.44 0.18 0.13 0.23 0.29 0.23 0.16 0.22 0.26 0.23 0.27 0.36 0.39 0.44 0.58 0.77 0.86 0.96 1.13 1.22 1.16 1.01 0.91 0.85 0.79 0.64 0.56 0.47 0.42 0.37 0.33 0.30 0.27 0.23 0.21 0.21 0.20 0.16 0.16 0.17 0.17
0.26 0.24 0.26 0.28 0.26 0.24 0.25 0.23 0.23 0.26 0.31 0.33 0.36 0.53 0.73 0.91 0.96 1.11 1.19 1.09 1.05 0.95 1.12 0.88 0.69 0.51 0.45 0.40 0.27 0.22 0.20 0.19 0.18 0.17 0.16 0.16 0.16 0.15 0.16 0.20 0.20 0.22 0.23 0.19
0.33 0.33 0.29 0.29 0.28 0.30 0.32 0.39 0.41 0.54 0.78 0.77 0.85 0.97 1.05 1.24 1.19 1.10 0.92 0.82 0.78 0.71 0.63 0.52 0.40 0.31 0.24 0.21 0.16 0.12 0.12 0.12 0.11 0.13 0.14 0.15 0.17 0.16 0.15 0.14 0.19 0.27 0.29 0.28
0.50 0.49 0.54 0.59 0.75 0.91 0.97 1.05 0.86 0.96 1.20 1.08 0.88 0.94 0.88 0.94 0.81 0.67 0.51 0.48 0.60 0.42 0.36 0.36 0.30 0.24 0.17 0.14 0.12 0.12 0.11 0.11 0.10 0.12 0.15 0.17 0.20 0.21 0.24 0.26 0.28 0.29 0.31 0.30
0.97 0.91 1.00 0.97 0.83 1.07 1.19 1.08 0.86 0.85 0.85 0.85 0.78 0.70 0.56 0.60 0.53 0.44 0.36 0.31 0.38 0.24 0.18 0.18 0.17 0.16 0.13 0.10 0.11 0.11 0.11 0.13 0.16 0.18 0.22 0.24 0.28 0.33 0.36 0.36 0.38 0.39 0.43 0.43
0.97 0.87 0.87 0.82 0.73 0.83 0.85 0.76 0.72 0.55 0.54 0.53 0.48 0.44 0.34 0.32 0.25 0.18 0.26 0.23 0.13 0.10 0.07 0.10 0.10 0.10 0.09 0.15 0.16 0.16 0.18 0.20 0.20 0.22 0.30 0.37 0.39 0.39 0.34 0.30 0.27 0.27 0.29 0.26
0.65 0.62 0.65 0.62 0.44 0.33 0.38 0.48 0.38 0.34 0.31 0.29 0.26 0.22 0.16 0.14 0.19 0.10 0.06 0.09 0.05 0.05 0.05 0.09 0.07 0.08 0.11 0.19 0.18 0.18 0.22 0.28 0.31 0.32 0.28 0.23 0.25 0.24 0.22 0.19 0.16 0.16 0.17 0.16
0.44 0.42 0.40 0.34 0.27 0.31 0.30 0.28 0.24 0.26 0.21 0.20 0.16 0.13 0.08 0.05 0.10 0.11 0.06 0.07 0.06 0.07 0.15 0.12 0.08 0.10 0.18 0.20 0.21 0.22 0.26 0.27 0.27 0.24 0.22 0.20 0.19 0.18 0.18 0.16 0.16 0.15 0.14 0.14
0.25 0.24 0.28 0.28 0.29 0.26 0.23 0.18 0.22 0.25 0.19 0.20 0.22 0.16 0.14 0.08 0.06 0.06 0.08 0.08 0.08 0.09 0.17 0.23 0.17 0.18 0.22 0.25 0.25 0.26 0.25 0.22 0.20 0.18 0.16 0.14 0.14 0.14 0.14 0.10 0.09 0.09 0.10 0.09
0.28 0.26 0.23 0.24 0.24 0.19 0.18 0.17 0.18 0.20 0.18 0.16 0.22 0.24 0.17 0.13 0.11 0.07 0.09 0.12 0.14 0.17 0.21 0.23 0.23 0.23 0.22 0.20 0.19 0.17 0.15 0.14 0.13 0.11 0.10 0.10 0.10 0.10 0.08 0.07 0.06 0.06 0.07 0.08